LFMY

Salon-de-Provence (BA 701) Air Base

Airport
ICAO code
LFMY
Summary
ICAO Region
EUR
ICAO Territory
Location

, Provence-Alpes-Cote d'Azur

Serving
Salon
Elevation
195 ft
Coordinates
43° 36' 23" N , 5° 6' 33" E
Metar
LFMY 260030Z AUTO 06004KT 6000 RA BKN015/// OVC025/// ///CB 10/09 Q1000

Runways

Designator Length Width Surface Rops
9/27 0 0 UNK No/No
17L/35R 0 0 UNK No/No
17R/35L 0 0 UNK No/No
16/34 2001 45 CON No/No

Airport map

Aerial View

SKYbrary Partners:

Safety knowledge contributed by: